Time,TemperatureF,DewpointF,PressureIn,WindDirection,WindDirectionDegrees,WindSpeedMPH,WindSpeedGustMPH,Humidity,HourlyPrecipIn,Conditions,Clouds,dailyrainin,SoftwareType,DateUTC
2013-04-25 00:03:00,35.0,31.0,29.17,WNW,292,0.0,2.0,85,0.00,,,0.70,,2013-04-25 04:03:00,
2013-04-25 00:13:00,35.0,31.0,29.17,WNW,292,0.0,2.0,85,0.00,,,0.70,,2013-04-25 04:13:00,
2013-04-25 00:23:00,35.0,31.0,29.17,North,0,0.0,0.0,86,0.00,,,0.70,,2013-04-25 04:23:00,
2013-04-25 00:33:00,35.0,32.0,29.17,North,0,0.0,0.0,87,0.00,,,0.70,,2013-04-25 04:33:00,
2013-04-25 00:43:00,35.0,32.0,29.17,North,0,0.0,0.0,87,0.00,,,0.70,,2013-04-25 04:43:00,
2013-04-25 00:52:00,34.0,31.0,29.17,North,0,0.0,0.0,88,0.00,,,0.70,,2013-04-25 04:52:00,
2013-04-25 01:02:00,34.0,31.0,29.17,North,0,0.0,0.0,89,0.00,,,0.70,,2013-04-25 05:02:00,
2013-04-25 01:12:00,34.0,31.0,29.17,North,0,0.0,0.0,89,0.00,,,0.70,,2013-04-25 05:12:00,
2013-04-25 01:22:00,34.0,31.0,29.14,North,0,0.0,0.0,90,0.00,,,0.70,,2013-04-25 05:22:00,
2013-04-25 01:32:00,34.0,31.0,29.17,North,0,0.0,0.0,89,0.00,,,0.70,,2013-04-25 05:32:00,
2013-04-25 01:42:00,34.0,31.0,29.17,North,0,0.0,0.0,89,0.00,,,0.70,,2013-04-25 05:42:00,
2013-04-25 01:52:00,35.0,33.0,29.17,SSE,159,1.0,3.0,92,0.00,,,0.70,,2013-04-25 05:52:00,
2013-04-25 02:02:00,35.0,33.0,29.17,SSE,157,0.0,0.0,92,0.00,,,0.70,,2013-04-25 06:02:00,
2013-04-25 02:12:00,35.0,33.0,29.17,SSE,157,0.0,0.0,92,0.00,,,0.70,,2013-04-25 06:12:00,
2013-04-25 02:22:00,35.0,33.0,29.17,South,181,1.0,4.0,94,0.00,,,0.70,,2013-04-25 06:22:00,
2013-04-25 02:32:00,35.0,33.0,29.17,SSW,202,0.0,2.0,94,0.00,,,0.70,,2013-04-25 06:32:00,
2013-04-25 02:42:00,35.0,33.0,29.17,SSW,202,0.0,2.0,94,0.00,,,0.70,,2013-04-25 06:42:00,
2013-04-25 02:52:00,34.0,32.0,29.17,SSE,157,0.0,2.0,94,0.00,,,0.70,,2013-04-25 06:52:00,
2013-04-25 03:02:00,34.0,32.0,29.17,SSE,157,0.0,2.0,94,0.00,,,0.70,,2013-04-25 07:02:00,
2013-04-25 03:12:00,34.0,32.0,29.17,ESE,112,0.0,2.0,94,0.00,,,0.70,,2013-04-25 07:12:00,
2013-04-25 03:22:00,34.0,32.0,29.17,ESE,112,0.0,2.0,94,0.00,,,0.70,,2013-04-25 07:22:00,
2013-04-25 03:32:00,34.0,33.0,29.16,ESE,112,0.0,1.0,95,0.00,,,0.70,,2013-04-25 07:32:00,
2013-04-25 03:42:00,34.0,33.0,29.16,ESE,112,0.0,1.0,95,0.00,,,0.70,,2013-04-25 07:42:00,
2013-04-25 03:52:00,33.0,32.0,29.16,East,90,0.0,1.0,96,0.00,,,0.70,,2013-04-25 07:52:00,
2013-04-25 04:02:00,33.0,32.0,29.15,East,90,0.0,0.0,95,0.00,,,0.70,,2013-04-25 08:02:00,
2013-04-25 04:11:00,33.0,32.0,29.15,East,90,0.0,0.0,95,0.00,,,0.70,,2013-04-25 08:11:00,
2013-04-25 04:21:00,32.0,31.0,29.18,East,90,0.0,0.0,95,0.00,,,0.70,,2013-04-25 08:21:00,
2013-04-25 04:32:00,32.0,31.0,29.15,East,90,0.0,0.0,95,0.00,,,0.70,,2013-04-25 08:32:00,
2013-04-25 04:42:00,32.0,31.0,29.15,East,90,0.0,0.0,95,0.00,,,0.70,,2013-04-25 08:42:00,
2013-04-25 04:52:00,32.0,31.0,29.15,East,90,0.0,0.0,96,0.00,,,0.70,,2013-04-25 08:52:00,
2013-04-25 05:01:00,32.0,31.0,29.15,East,90,0.0,0.0,97,0.00,,,0.62,,2013-04-25 09:01:00,
2013-04-25 05:11:00,32.0,31.0,29.15,East,90,0.0,0.0,97,0.00,,,0.62,,2013-04-25 09:11:00,
2013-04-25 05:21:00,31.0,31.0,29.15,East,90,0.0,0.0,98,0.00,,,0.62,,2013-04-25 09:21:00,
2013-04-25 05:33:00,31.0,31.0,29.15,East,90,0.0,0.0,98,0.00,,,0.62,,2013-04-25 09:33:00,
2013-04-25 05:42:00,31.0,31.0,29.15,East,90,0.0,0.0,98,0.00,,,0.62,,2013-04-25 09:42:00,
2013-04-25 05:53:00,30.0,29.0,29.18,East,90,0.0,0.0,98,0.00,,,0.58,,2013-04-25 09:53:00,
2013-04-25 06:02:00,31.0,31.0,29.18,East,90,0.0,0.0,98,0.00,,,0.58,,2013-04-25 10:02:00,
2013-04-25 06:12:00,31.0,31.0,29.18,East,90,0.0,0.0,98,0.00,,,0.58,,2013-04-25 10:12:00,
2013-04-25 06:22:00,31.0,31.0,29.18,East,90,0.0,0.0,98,0.00,,,0.58,,2013-04-25 10:22:00,
2013-04-25 06:32:00,31.0,31.0,29.18,East,90,0.0,0.0,98,0.00,,,0.58,,2013-04-25 10:32:00,
2013-04-25 06:42:00,31.0,31.0,29.18,East,90,0.0,0.0,98,0.00,,,0.58,,2013-04-25 10:42:00,
2013-04-25 06:52:00,30.0,29.0,29.18,ESE,112,0.0,1.0,98,0.00,,,0.58,,2013-04-25 10:52:00,
2013-04-25 07:02:00,31.0,31.0,29.18,ESE,112,0.0,0.0,98,0.00,,,0.54,,2013-04-25 11:02:00,
2013-04-25 07:12:00,31.0,31.0,29.18,ESE,112,0.0,0.0,98,0.00,,,0.54,,2013-04-25 11:12:00,
2013-04-25 07:22:00,31.0,31.0,29.18,East,90,0.0,0.0,98,0.00,,,0.54,,2013-04-25 11:22:00,
2013-04-25 07:32:00,33.0,32.0,29.20,East,90,0.0,0.0,98,0.00,,,0.54,,2013-04-25 11:32:00,
2013-04-25 07:42:00,33.0,32.0,29.20,East,90,0.0,0.0,98,0.00,,,0.54,,2013-04-25 11:42:00,
2013-04-25 07:51:00,34.0,34.0,29.20,East,90,0.0,0.0,98,0.00,,,0.54,,2013-04-25 11:51:00,
2013-04-25 08:01:00,37.0,36.0,29.21,East,90,0.0,0.0,98,0.00,,,0.54,,2013-04-25 12:01:00,
2013-04-25 08:12:00,37.0,36.0,29.21,East,90,0.0,0.0,98,0.00,,,0.54,,2013-04-25 12:12:00,
2013-04-25 08:21:00,38.0,37.0,29.21,ESE,112,0.0,3.0,98,0.00,,,0.54,,2013-04-25 12:21:00,
2013-04-25 08:32:00,39.0,38.0,29.21,ESE,112,1.0,3.0,98,0.00,,,0.54,,2013-04-25 12:32:00,
2013-04-25 08:42:00,39.0,38.0,29.21,ESE,112,1.0,3.0,98,0.00,,,0.54,,2013-04-25 12:42:00,
2013-04-25 08:51:00,42.0,41.0,29.21,SSE,157,0.0,3.0,97,0.00,,,0.54,,2013-04-25 12:51:00,
2013-04-25 09:02:00,43.0,39.0,29.21,ESE,112,0.0,3.0,87,0.00,,,0.50,,2013-04-25 13:02:00,
2013-04-25 09:11:00,43.0,39.0,29.21,ESE,112,0.0,3.0,87,0.00,,,0.50,,2013-04-25 13:11:00,
2013-04-25 09:21:00,45.0,34.0,29.21,WSW,246,4.0,6.0,65,0.00,,,0.50,,2013-04-25 13:21:00,
2013-04-25 09:32:00,46.0,34.0,29.21,SSW,204,3.0,4.0,63,0.00,,,0.50,,2013-04-25 13:32:00,
2013-04-25 09:42:00,46.0,34.0,29.21,SSW,204,3.0,4.0,63,0.00,,,0.50,,2013-04-25 13:42:00,
2013-04-25 09:53:00,49.0,34.0,29.21,West,277,3.0,5.0,55,0.00,,,0.50,,2013-04-25 13:53:00,
2013-04-25 10:02:00,50.0,33.0,29.21,West,263,3.0,6.0,51,0.00,,,0.50,,2013-04-25 14:02:00,
2013-04-25 10:11:00,50.0,33.0,29.21,West,263,3.0,6.0,51,0.00,,,0.50,,2013-04-25 14:11:00,
2013-04-25 10:21:00,53.0,32.0,29.22,WSW,244,3.0,6.0,44,0.00,,,0.50,,2013-04-25 14:21:00,
2013-04-25 10:32:00,52.0,27.0,29.22,WSW,257,3.0,7.0,38,0.00,,,0.50,,2013-04-25 14:32:00,
2013-04-25 10:42:00,52.0,27.0,29.22,WSW,257,3.0,7.0,38,0.00,,,0.50,,2013-04-25 14:42:00,
2013-04-25 10:52:00,53.0,27.0,29.22,SW,219,4.0,6.0,36,0.00,,,0.50,,2013-04-25 14:52:00,
2013-04-25 11:02:00,52.0,22.0,29.21,SW,219,7.0,13.0,31,0.00,,,0.46,,2013-04-25 15:02:00,
2013-04-25 11:11:00,52.0,22.0,29.21,SW,219,7.0,13.0,31,0.00,,,0.46,,2013-04-25 15:11:00,
2013-04-25 11:21:00,52.0,26.0,29.21,WSW,256,4.0,11.0,36,0.00,,,0.46,,2013-04-25 15:21:00,
2013-04-25 11:33:00,53.0,22.0,29.21,SW,221,5.0,10.0,30,0.00,,,0.46,,2013-04-25 15:33:00,
2013-04-25 11:42:00,53.0,22.0,29.21,SW,221,5.0,10.0,30,0.00,,,0.46,,2013-04-25 15:42:00,
2013-04-25 11:53:00,52.0,22.0,29.21,SSW,202,7.0,12.0,31,0.00,,,0.46,,2013-04-25 15:53:00,
2013-04-25 12:02:00,54.0,23.0,29.21,SSW,197,7.0,13.0,30,0.00,,,0.46,,2013-04-25 16:02:00,
2013-04-25 12:13:00,54.0,23.0,29.21,SSW,197,7.0,13.0,30,0.00,,,0.46,,2013-04-25 16:13:00,
2013-04-25 12:24:00,54.0,23.0,29.21,South,191,5.0,11.0,30,0.00,,,0.46,,2013-04-25 16:24:00,
2013-04-25 12:33:00,54.0,26.0,29.21,SSW,213,6.0,13.0,33,0.00,,,0.46,,2013-04-25 16:33:00,
2013-04-25 12:43:00,54.0,26.0,29.21,SSW,213,6.0,13.0,33,0.00,,,0.46,,2013-04-25 16:43:00,
2013-04-25 12:52:00,56.0,27.0,29.22,SSW,194,5.0,10.0,32,0.00,,,0.46,,2013-04-25 16:52:00,
2013-04-25 13:02:00,55.0,25.0,29.21,SW,226,5.0,13.0,31,0.00,,,0.37,,2013-04-25 17:02:00,
2013-04-25 13:11:00,55.0,25.0,29.21,SW,226,5.0,13.0,31,0.00,,,0.37,,2013-04-25 17:11:00,
2013-04-25 13:22:00,55.0,25.0,29.21,SSW,203,7.0,17.0,31,0.00,,,0.37,,2013-04-25 17:22:00,
2013-04-25 13:32:00,58.0,27.0,29.20,WSW,248,5.0,10.0,30,0.00,,,0.37,,2013-04-25 17:32:00,
2013-04-25 13:42:00,58.0,27.0,29.20,WSW,248,5.0,10.0,30,0.00,,,0.37,,2013-04-25 17:42:00,
2013-04-25 13:53:00,59.0,26.0,29.20,SW,228,7.0,11.0,28,0.00,,,0.37,,2013-04-25 17:53:00,
2013-04-25 14:01:00,57.0,24.0,29.20,WSW,237,5.0,12.0,28,0.00,,,0.21,,2013-04-25 18:01:00,
2013-04-25 14:11:00,57.0,24.0,29.20,WSW,237,5.0,12.0,28,0.00,,,0.21,,2013-04-25 18:11:00,
2013-04-25 14:22:00,60.0,26.0,29.20,WSW,252,5.0,12.0,27,0.00,,,0.21,,2013-04-25 18:22:00,
2013-04-25 14:32:00,60.0,26.0,29.20,SW,231,3.0,10.0,27,0.00,,,0.21,,2013-04-25 18:32:00,
2013-04-25 14:42:00,60.0,26.0,29.20,SW,231,3.0,10.0,27,0.00,,,0.21,,2013-04-25 18:42:00,
2013-04-25 14:53:00,60.0,24.0,29.20,SSW,207,6.0,11.0,25,0.00,,,0.17,,2013-04-25 18:53:00,
2013-04-25 15:02:00,61.0,25.0,29.20,West,267,7.0,13.0,25,0.00,,,0.17,,2013-04-25 19:02:00,
2013-04-25 15:12:00,61.0,25.0,29.20,West,267,7.0,13.0,25,0.00,,,0.17,,2013-04-25 19:12:00,
2013-04-25 15:21:00,60.0,24.0,29.17,SW,231,4.0,9.0,25,0.00,,,0.17,,2013-04-25 19:21:00,
2013-04-25 15:32:00,57.0,22.0,29.17,SSW,210,6.0,11.0,26,0.00,,,0.17,,2013-04-25 19:32:00,
2013-04-25 15:42:00,57.0,22.0,29.17,SSW,210,6.0,11.0,26,0.00,,,0.17,,2013-04-25 19:42:00,
2013-04-25 15:52:00,56.0,23.0,29.16,WSW,241,4.0,9.0,28,0.00,,,0.00,,2013-04-25 19:52:00,
2013-04-25 16:02:00,59.0,26.0,29.17,SW,236,5.0,11.0,28,0.00,,,0.00,,2013-04-25 20:02:00,
2013-04-25 16:11:00,59.0,26.0,29.17,SW,236,5.0,11.0,28,0.00,,,0.00,,2013-04-25 20:11:00,
2013-04-25 16:22:00,58.0,24.0,29.17,SSW,212,6.0,15.0,27,0.00,,,0.00,,2013-04-25 20:22:00,
2013-04-25 16:32:00,57.0,25.0,29.16,West,272,4.0,9.0,29,0.00,,,0.00,,2013-04-25 20:32:00,
2013-04-25 16:42:00,57.0,25.0,29.16,West,272,4.0,9.0,29,0.00,,,0.00,,2013-04-25 20:42:00,
2013-04-25 16:52:00,56.0,28.0,29.16,SW,234,5.0,14.0,34,0.00,,,0.00,,2013-04-25 20:52:00,
2013-04-25 17:01:00,55.0,29.0,29.16,West,262,3.0,7.0,36,0.00,,,0.00,,2013-04-25 21:01:00,
2013-04-25 17:11:00,55.0,29.0,29.16,West,262,3.0,7.0,36,0.00,,,0.00,,2013-04-25 21:11:00,
2013-04-25 17:22:00,57.0,29.0,29.16,WSW,253,6.0,9.0,34,0.00,,,0.00,,2013-04-25 21:22:00,
2013-04-25 17:33:00,55.0,29.0,29.16,WSW,250,4.0,11.0,36,0.00,,,0.00,,2013-04-25 21:33:00,
2013-04-25 17:42:00,55.0,29.0,29.16,WSW,250,4.0,11.0,36,0.00,,,0.00,,2013-04-25 21:42:00,
2013-04-25 17:52:00,54.0,28.0,29.16,West,262,4.0,10.0,37,0.00,,,0.00,,2013-04-25 21:52:00,
2013-04-25 18:03:00,52.0,31.0,29.19,WNW,298,3.0,10.0,44,0.00,,,0.00,,2013-04-25 22:03:00,
2013-04-25 18:12:00,52.0,31.0,29.19,WNW,298,3.0,10.0,44,0.00,,,0.00,,2013-04-25 22:12:00,
2013-04-25 18:22:00,53.0,33.0,29.19,WNW,297,3.0,6.0,46,0.00,,,0.00,,2013-04-25 22:22:00,
2013-04-25 18:33:00,53.0,34.0,29.19,NW,308,4.0,7.0,49,0.00,,,0.00,,2013-04-25 22:33:00,
2013-04-25 18:42:00,53.0,34.0,29.19,NW,308,4.0,7.0,49,0.00,,,0.00,,2013-04-25 22:42:00,
2013-04-25 18:52:00,52.0,33.0,29.21,NNW,340,4.0,8.0,48,0.00,,,0.00,,2013-04-25 22:52:00,
2013-04-25 19:02:00,50.0,36.0,29.21,NNW,337,4.0,6.0,58,0.00,,,0.00,,2013-04-25 23:02:00,
2013-04-25 19:12:00,50.0,36.0,29.21,NNW,337,4.0,6.0,58,0.00,,,0.00,,2013-04-25 23:12:00,
2013-04-25 19:22:00,49.0,37.0,29.21,WNW,286,2.0,8.0,62,0.00,,,0.00,,2013-04-25 23:22:00,
2013-04-25 19:32:00,48.0,37.0,29.21,NNW,337,2.0,3.0,66,0.00,,,0.00,,2013-04-25 23:32:00,
2013-04-25 19:42:00,48.0,37.0,29.21,NNW,337,2.0,3.0,66,0.00,,,0.00,,2013-04-25 23:42:00,
2013-04-25 19:52:00,48.0,38.0,29.24,West,264,3.0,4.0,68,0.04,,,0.00,,2013-04-25 23:52:00,
2013-04-25 20:01:00,48.0,37.0,29.24,NW,309,2.0,3.0,66,0.00,,,0.04,,2013-04-26 00:01:00,
2013-04-25 20:11:00,48.0,37.0,29.24,NW,309,2.0,3.0,66,0.00,,,0.04,,2013-04-26 00:11:00,
2013-04-25 20:21:00,47.0,37.0,29.24,NW,315,1.0,4.0,68,0.00,,,0.04,,2013-04-26 00:21:00,
2013-04-25 20:32:00,47.0,37.0,29.24,North,0,2.0,4.0,69,0.00,,,0.04,,2013-04-26 00:32:00,
2013-04-25 20:42:00,47.0,37.0,29.24,North,0,2.0,4.0,69,0.00,,,0.04,,2013-04-26 00:42:00,
2013-04-25 20:52:00,47.0,37.0,29.28,North,0,3.0,5.0,69,0.00,,,0.04,,2013-04-26 00:52:00,
2013-04-25 21:01:00,46.0,36.0,29.25,WNW,297,1.0,4.0,68,0.00,,,0.04,,2013-04-26 01:01:00,
2013-04-25 21:11:00,46.0,36.0,29.25,WNW,297,1.0,4.0,68,0.00,,,0.04,,2013-04-26 01:11:00,
2013-04-25 21:21:00,45.0,35.0,29.28,NNW,337,0.0,2.0,69,0.00,,,0.04,,2013-04-26 01:21:00,
2013-04-25 21:32:00,44.0,35.0,29.28,NNW,337,0.0,1.0,70,0.00,,,0.04,,2013-04-26 01:32:00,
2013-04-25 21:42:00,44.0,35.0,29.28,NNW,337,0.0,1.0,70,0.00,,,0.04,,2013-04-26 01:42:00,
2013-04-25 21:52:00,43.0,34.0,29.28,NNW,337,0.0,0.0,71,0.00,,,0.04,,2013-04-26 01:52:00,
2013-04-25 22:02:00,42.0,34.0,29.28,NNW,337,0.0,0.0,74,0.00,,,0.04,,2013-04-26 02:02:00,
2013-04-25 22:12:00,42.0,34.0,29.28,NNW,337,0.0,0.0,74,0.00,,,0.04,,2013-04-26 02:12:00,
2013-04-25 22:21:00,42.0,35.0,29.31,NNW,337,0.0,0.0,76,0.00,,,0.04,,2013-04-26 02:21:00,
2013-04-25 22:32:00,41.0,34.0,29.31,NNW,337,0.0,0.0,77,0.00,,,0.04,,2013-04-26 02:32:00,
2013-04-25 22:42:00,41.0,34.0,29.31,NNW,337,0.0,0.0,77,0.00,,,0.04,,2013-04-26 02:42:00,
2013-04-25 22:52:00,41.0,34.0,29.31,NNW,337,0.0,0.0,77,0.00,,,0.04,,2013-04-26 02:52:00,
2013-04-25 23:01:00,41.0,36.0,29.31,NNW,337,0.0,0.0,81,0.00,,,0.04,,2013-04-26 03:01:00,
2013-04-25 23:11:00,41.0,36.0,29.31,NNW,337,0.0,0.0,81,0.00,,,0.04,,2013-04-26 03:11:00,
2013-04-25 23:22:00,40.0,35.0,29.31,NNW,337,0.0,0.0,82,0.00,,,0.04,,2013-04-26 03:22:00,
2013-04-25 23:33:00,39.0,34.0,29.31,NNW,337,0.0,0.0,83,0.00,,,0.04,,2013-04-26 03:33:00,
2013-04-25 23:43:00,39.0,34.0,29.31,NNW,337,0.0,0.0,83,0.00,,,0.04,,2013-04-26 03:43:00,
2013-04-25 23:53:00,39.0,35.0,29.31,NNW,337,0.0,0.0,84,0.00,,,0.04,,2013-04-26 03:53:00,